Regional Weather Roundup
Issued by NWS Goodland, KS

Home | Current Version | Previous Version | Graphics & Text | Print | Product List | Glossary On
Versions: 1 2 3 4 5 6 7 8 9 10 11 12 13 14 15 16 17 18 19 20 21 22 23 24 25 26 27 28 29 30 31 32 33 34 35 36 37 38 39 40 41 42 43 44 45 46 47 48 49 50
801
ASUS43 KGLD 170259
RWRGLD

GOODLAND FORECAST AREA HOURLY WEATHER ROUNDUP
NATIONAL WEATHER SERVICE GOODLAND KS
900 PM MDT WED AUG 16 2017

...OFFICIAL OBSERVATIONS...

CITY           SKY/WX    TMP DP  RH WIND       PRES   REMARKS
GOODLAND KS    CLEAR     61  58  90 N6        30.06R
HILL CITY KS   CLEAR     66  63  90 N8        29.97R
IMPERIAL NEB   CLEAR     65  54  67 W5        30.05R
MCCOOK NEB     CLEAR     64  61  90 N8        30.00R
AKRON CO       CLEAR     63  49  60 NE7       30.13R
BURLINGTON CO  CLEAR     64  55  72 N5        30.10R
LIMON CO       CLEAR     55  52  89 N3        30.18R
$$

...UNOFFICIAL OBSERVATIONS...

CITY           SKY/WX    TMP DP  RH WIND       PRES   REMARKS
LENORA KS        N/A     66  32  28 CALM        N/A
NORTON KS      CLEAR     64  59  82 NW6       29.98R
TRENTON NEB      N/A     63  32  31 CALM        N/A
KIT CARSON CO    N/A     66  53  64 MISG        N/A
YUMA CO        FAIR      61  43  51 NE5       30.11R
$$




USA.gov is the U.S. government's official web portal to all federal, state and local government web resources and services.